Weather History for Defiance, OH

Change the Weather History Date:

Saturday, January 18, 2014

  Actual Average Record
Temperature  
Mean Temperature 13 °F -  
Max Temperature 19 °F 30 °F 63 °F (1952)
Min Temperature 7 °F 14 °F -22 °F (1982)
Degree Days  
Heating Degree Days 52    
Moisture  
Dew Point 11 °F    
Average Humidity 81    
Maximum Humidity 93    
Minimum Humidity 68    
Precipitation  
Precipitation 0.06 in - - ()
Sea Level Pressure  
Sea Level Pressure 29.91 in    
Wind  
Wind Speed 6 mph (SSE)    
Max Wind Speed 14 mph    
Max Gust Speed -    
Visibility 6 miles    
Events Snow    
Averages and records for this station are not official NWS values.
T = Trace of Precipitation, MM = Missing Value Source: NWS Daily Summary

Daily Weather History Graph

Daily Weather History Graph

Search for Another Location

Airport:

Trip Planner

Search our weather history database for the weather conditions in past years. The results will help you decide how hot, cold, wet, or windy it might be!

Date:

Astronomy

Jan. 18, 2014 Rise Set
Actual Time 7:59 AM EST 5:36 PM EST
Civil Twilight 7:29 AM EST 6:07 PM EST
Nautical Twilight 6:55 AM EST 6:41 PM EST
Astronomical Twilight 6:22 AM EST 7:14 PM EST
Moon 8:20 PM EST 8:57 AM EST
Length of Visible Light 10h 37m
Length of Day
9h 36m
Waning Gibbous, 94% of the Moon is Illuminated
Jan 18
Waning Gibbous
Jan 24
Last Quarter
Jan 30
New
Feb 6
First Quarter
Feb 14
Full

Hourly Weather History & Observations

Time (EST) Temp. Windchill Dew Point Humidity Pressure Visibility Wind Dir Wind Speed Gust Speed Precip Events Conditions
12:53 AM 7.0 °F -3.3 °F 1.9 °F 80% 30.00 in 10.0 mi SSW 5.8 mph - N/A   Scattered Clouds
1:53 AM 7.0 °F -1.7 °F 1.9 °F 80% 29.99 in 10.0 mi SSW 4.6 mph - N/A   Mostly Cloudy
2:53 AM 8.1 °F -3.2 °F 3.9 °F 83% 30.00 in 10.0 mi SW 6.9 mph - N/A   Clear
3:53 AM 7.0 °F -1.7 °F 3.0 °F 84% 30.00 in 10.0 mi SSW 4.6 mph - N/A   Clear
4:53 AM 7.0 °F -1.7 °F 3.9 °F 87% 29.99 in 9.0 mi SSW 4.6 mph - N/A   Clear
5:53 AM 10.0 °F -0.9 °F 5.0 °F 80% 29.99 in 10.0 mi SSW 6.9 mph - N/A   Clear
6:53 AM 10.0 °F -0.9 °F 6.1 °F 84% 29.99 in 10.0 mi SW 6.9 mph - N/A   Clear
7:53 AM 10.0 °F -0.9 °F 5.0 °F 80% 29.99 in 10.0 mi SSW 6.9 mph - N/A   Partly Cloudy
8:53 AM 10.9 °F -1.8 °F 7.0 °F 84% 30.00 in 9.0 mi SSW 9.2 mph - N/A   Mostly Cloudy
9:46 AM 14.0 °F 1.2 °F 8.6 °F 79% 29.97 in 9.0 mi SSW 10.4 mph - N/A   Overcast
9:53 AM 14.0 °F 2.9 °F 8.1 °F 77% 30.01 in 9.0 mi SW 8.1 mph - N/A   Overcast
10:45 AM 15.8 °F 3.4 °F 8.6 °F 73% 29.97 in 8.0 mi SSW 10.4 mph - N/A   Overcast
10:53 AM 16.0 °F 3.6 °F 9.0 °F 74% 30.01 in 10.0 mi SSW 10.4 mph - N/A   Mostly Cloudy
11:06 AM 15.8 °F 1.4 °F 8.6 °F 73% 29.97 in 9.0 mi SSW 13.8 mph - N/A   Mostly Cloudy
11:53 AM 17.1 °F 3.6 °F 9.0 °F 71% 29.99 in 9.0 mi SSW 12.7 mph - 0.00 in   Overcast
12:13 PM 17.6 °F 4.3 °F 8.6 °F 68% 29.94 in 10.0 mi SSW 12.7 mph - N/A   Mostly Cloudy
12:53 PM 18.0 °F 5.4 °F 9.0 °F 68% 29.96 in 10.0 mi SSW 11.5 mph - N/A   Scattered Clouds
1:53 PM 18.0 °F 6.9 °F 10.0 °F 71% 29.94 in 10.0 mi SSW 9.2 mph - N/A   Mostly Cloudy
2:53 PM 19.0 °F 10.0 °F 10.9 °F 71% 29.92 in 10.0 mi South 6.9 mph - N/A   Overcast
3:53 PM 19.0 °F 9.0 °F 12.0 °F 74% 29.91 in 10.0 mi SSE 8.1 mph - N/A   Overcast
4:46 PM 19.4 °F 10.4 °F 12.2 °F 74% 29.86 in 2.0 mi SE 6.9 mph - 0.00 in Snow Light Snow
4:53 PM 19.9 °F 12.1 °F 12.9 °F 74% 29.91 in 1.2 mi SSE 5.8 mph - 0.00 in Snow Light Snow
5:10 PM 19.4 °F 14.3 °F 14.0 °F 80% 29.86 in 0.8 mi SSE 3.5 mph - 0.00 in Snow Light Snow
5:50 PM 19.4 °F 14.3 °F 15.8 °F 86% 29.87 in 1.2 mi ESE 3.5 mph - 0.01 in Snow Light Snow
5:53 PM 19.0 °F 12.3 °F 15.1 °F 85% 29.91 in 1.2 mi ESE 4.6 mph - 0.01 in Snow Light Snow
6:53 PM 19.0 °F 13.9 °F 15.1 °F 85% 29.91 in 1.2 mi East 3.5 mph - 0.01 in Snow Light Snow
7:53 PM 19.0 °F 12.3 °F 16.0 °F 88% 29.91 in 1.8 mi East 4.6 mph - 0.01 in Snow Light Snow
8:47 PM 19.4 °F 14.3 °F 15.8 °F 86% 29.85 in 0.8 mi East 3.5 mph - 0.00 in Snow Light Snow
8:53 PM 19.9 °F 13.4 °F 16.0 °F 85% 29.89 in 0.8 mi East 4.6 mph - 0.01 in Snow Light Snow
9:04 PM 19.4 °F 14.3 °F 15.8 °F 86% 29.84 in 1.0 mi East 3.5 mph - 0.00 in Snow Light Snow
9:17 PM 19.4 °F 14.3 °F 15.8 °F 86% 29.84 in 1.0 mi East 3.5 mph - 0.01 in Snow Light Snow
9:24 PM 19.4 °F 14.3 °F 15.8 °F 86% 29.84 in 0.8 mi East 3.5 mph - 0.01 in Snow Light Snow
9:33 PM 19.4 °F 14.3 °F 15.8 °F 86% 29.83 in 1.0 mi East 3.5 mph - 0.01 in Snow Light Snow
9:53 PM 19.9 °F 14.9 °F 16.0 °F 85% 29.87 in 1.2 mi East 3.5 mph - 0.02 in Snow Light Snow
10:37 PM 19.4 °F 12.8 °F 15.8 °F 86% 29.81 in 2.0 mi ENE 4.6 mph - 0.00 in Snow Light Snow
10:50 PM 19.4 °F 14.3 °F 15.8 °F 86% 29.81 in 1.8 mi East 3.5 mph - 0.00 in Snow Light Snow
10:53 PM 19.9 °F 13.4 °F 16.0 °F 85% 29.85 in 1.8 mi East 4.6 mph - 0.00 in Snow Light Snow
10:56 PM 19.4 °F 12.8 °F 15.8 °F 86% 29.81 in 2.0 mi East 4.6 mph - 0.00 in Snow Light Snow
11:06 PM 19.4 °F 14.3 °F 15.8 °F 86% 29.81 in 3.0 mi NE 3.5 mph - 0.00 in Snow Light Snow
11:36 PM 17.6 °F - 15.8 °F 93% 29.80 in 6.0 mi Calm Calm - 0.00 in   Overcast
11:53 PM 16.0 °F 10.4 °F 12.9 °F 88% 29.83 in 6.0 mi East 3.5 mph - 0.00 in   Scattered Clouds